Location: Capelle
(50.3413°N, 1.9974°E)
Time: 23:33:21
(UTC+00:00)

Cosmos 292 Rocket - Pass Details

Date: 12 January 2026
Orbit: 663 x 681 km, 74.0° (Epoch: 9 February)

Event Time Altitude Azimuth Distance (km) Brightness Sun altitude
Rises 18:24:05 0° 337° (NNW) 3,015 7.3 -20.1°
Reaches altitude 10° 18:26:24 10° 340° (NNW) 2,097 6.4 -20.5°
Maximum altitude 18:31:05 67° 63° (ENE) 724 3.6 -21.2°
Enters shadow 18:32:24 45° 128° (SE) 911 4.1 -21.4°
